This demonstration page uses our WeatherBlox Daily Observations layout. Learn more.

Left ArrowRight Arrow

Hourly Observations for August 20, 2017

Temp ( °F °C ) Dew Point ( °F °C ) Humidity (%) Winds ( mph kmh ) Pressure ( in mb ) Visibility ( mi km ) Precip ( " mm )
12:51 am 00:51 Clear 80 26.7 53 11.7 39 39 E 13 20 29.83 1010 10 16.0934 0 0
1:51 am 01:51 Clear 80 26.7 52 11.1 38 38 E 10 17 29.83 1010 10 16.0934 0 0
2:51 am 02:51 Cloudy 79 26.1 53 11.7 41 41 ESE 8 13 29.83 1010 10 16.0934 0 0
3:51 am 03:51 Cloudy 75 23.9 59 15 58 58 SSE 10 17 29.86 1011 10 16.0934 0 0
4:51 am 04:51 Cloudy 74 23.3 60 15.6 62 62 SSE 10 17 29.89 1012 10 16.0934 0 0
5:51 am 05:51 Mostly Cloudy 72 22.2 62 16.7 71 71 E 5 7 29.91 1013 10 16.0934 0 0
6:51 am 06:51 Cloudy 71 21.7 64 17.8 79 79 SE 5 7 29.92 1013 10 16.0934 0 0.0254
7:51 am 07:51 Mostly Sunny 74 23.3 63 17.2 69 69 SSW 7 11 29.91 1013 10 16.0934 0 0
8:51 am 08:51 Sunny 76 24.4 62 16.7 62 62 ESE 3 6 29.91 1013 10 16.0934 0 0
9:51 am 09:51 Cloudy 78 25.6 62 16.7 58 58 Calm 29.91 1013 10 16.0934 0 0
10:51 am 10:51 Mostly Cloudy 80 26.7 62 16.7 54 54 S 6 9 29.9 1013 10 16.0934 0 0
11:51 am 11:51 Mostly Cloudy 82 27.8 60 15.6 47 47 VRB 6 9 29.88 1012 10 16.0934 0 0
12:51 pm 12:51 Cloudy 82 27.8 55 12.8 40 40 SSW 5 7 29.87 1011 10 16.0934 0 0
1:51 pm 13:51 Cloudy 83 28.3 57 13.9 41 41 S 5 7 29.85 1011 10 16.0934 0 0
2:51 pm 14:51 Cloudy 83 28.3 57 13.9 41 41 W 5 7 29.81 1010 10 16.0934 0 0
3:51 pm 15:51 Mostly Sunny 87 30.6 55 12.8 34 34 S 5 7 29.79 1009 10 16.0934 0 0
4:51 pm 16:51 Mostly Cloudy 86 30 54 12.2 33 33 S 6 9 29.78 1009 10 16.0934 0 0
5:51 pm 17:51 Mostly Cloudy 83 28.3 56 13.3 40 40 N 17 28 29.8 1009 10 16.0934 0 0
6:51 pm 18:51 Cloudy 81 27.2 55 12.8 41 41 N 8 13 29.8 1009 10 16.0934 0 0
7:51 pm 19:51 Cloudy 82 27.8 53 11.7 37 37 NNW 9 15 29.83 1010 10 16.0934 0 0
8:42 pm 20:42 Mostly Cloudy 73 23 63 17 69 69 WNW 17 28 29.85 1011 10 16.0934 0 0
8:51 pm 20:51 Mostly Cloudy 73 22.8 61 16.1 66 66 WNW 15 24 29.89 1012 10 16.0934 0 0.0254
9:51 pm 21:51 Mostly Cloudy 74 23.3 58 14.4 57 57 N 8 13 29.88 1012 10 16.0934 0 0
10:51 pm 22:51 Clear 74 23.3 59 15 60 60 NE 6 9 29.88 1012 10 16.0934 0 0
11:51 pm 23:51 Mostly Clear 72 22.2 59 15 64 64 WSW 9 15 29.9 1013 10 16.0934 0 0

Powered by AerisWeather